Theta_e
294 293 293 293 293 292 292 292 291 291 291 290 290 290 290 289 289 289 289 289 289 289 289 289 289 289 289 289 289 289 288 288 288 288 288 288 288 288 288 289 290 290
292 292 291 291 291 291 291 291 291 290 290 290 290 289 289 289 289 288 288 288 288 288 288 288 288 288 288 288 288 288 288 288 288 288 288 288 288 288 288 288 288 288
290 290 290 290 290 290 290 290 290 290 290 290 289 289 289 289 289 288 288 288 288 287 287 287 287 287 287 287 287 287 287 287 287 288 287 287 287 287 287 287 287 287
289 289 289 289 289 289 288 288 288 288 288 288 288 288 288 288 288 288 288 288 288 288 288 287 287 287 287 287 287 287 287 287 287 287 287 287 287 287 287 287 287 287
288 288 288 288 288 288 288 288 288 288 288 287 287 287 287 288 288 288 288 288 288 288 288 288 287 287 287 287 287 287 287 287 287 287 287 287 287 287 287 287 287 287
288 288 288 288 288 288 288 288 288 287 287 287 287 287 287 287 287 287 287 287 287 287 287 287 287 287 287 287 287 287 287 287 287 287 287 287 287 288 287 287 287 287
288 288 288 287 287 287 287 287 287 287 287 287 287 287 287 287 286 286 287 287 287 287 287 287 287 287 287 287 287 287 287 287 287 287 287 287 287 288 287 287 287 287
287 287 288 287 287 287 287 287 287 287 287 287 287 286 286 286 286 286 286 286 286 286 286 286 286 287 287 287 287 287 287 287 287 287 287 288 288 288 288 287 287 287
288 288 288 287 287 287 287 287 287 286 286 286 286 286 286 286 286 286 286 286 286 286 286 286 286 286 286 286 286 287 287 287 287 287 287 287 287 287 287 287 287 287
288 288 287 287 287 287 287 287 287 286 286 286 286 286 286 286 286 286 286 286 286 286 286 286 286 286 286 286 286 286 286 286 287 287 287 287 287 287 287 287 287 287
288 288 288 287 288 287 287 287 287 287 286 286 286 286 286 286 286 286 286 286 286 286 286 286 286 286 286 286 286 286 286 286 286 286 286 286 286 286 286 286 286 287
288 288 288 288 288 288 287 287 287 287 287 286 286 286 286 286 286 286 286 286 286 286 286 286 286 286 286 286 286 285 286 286 286 286 286 286 286 286 286 286 286 286
288 288 288 288 288 288 288 288 287 287 287 286 286 286 286 286 285 285 285 285 286 286 285 286 285 285 285 285 285 285 285 286 286 286 286 286 286 286 286 286 286 285
288 288 288 288 288 288 288 288 288 287 287 286 286 285 285 285 285 285 285 285 285 285 285 285 285 285 285 285 285 285 285 285 285 286 286 286 286 286 286 285 285 285
289 289 289 288 288 288 288 288 288 288 287 286 285 285 285 285 285 285 285 285 285 285 285 285 285 285 285 285 285 285 285 285 285 285 285 285 285 286 286 286 285 285
289 289 289 289 288 288 288 288 288 288 287 286 285 285 285 285 284 284 284 284 284 285 285 284 284 285 285 284 284 284 284 284 285 285 285 285 285 285 285 285 285 285
289 289 289 288 288 288 288 288 288 288 287 286 285 285 285 284 284 284 284 284 284 284 284 284 284 284 284 284 284 284 283 283 284 284 284 284 284 284 285 285 285 284
289 289 289 288 288 288 288 288 288 287 286 285 285 285 285 284 284 284 284 283 283 284 284 284 284 284 284 284 284 283 282 282 282 283 283 283 283 283 283 283 282 282
289 289 288 288 288 288 288 287 287 287 286 285 284 284 284 284 283 283 283 283 283 283 284 284 284 284 284 283 283 282 281 281 281 281 281 282 282 281 280 280 279 278
289 288 288 288 288 287 287 287 286 286 285 284 284 284 283 283 283 283 283 283 283 283 284 284 284 284 283 283 282 282 281 280 280 280 280 280 279 278 277 277 276 276
288 288 288 288 287 287 287 286 285 284 284 284 283 283 283 283 283 283 283 283 283 283 283 284 283 283 282 282 281 281 280 279 279 279 279 278 277 276 275 275 275 274
288 288 288 287 287 287 286 285 284 283 283 283 283 283 283 282 282 282 282 283 283 283 283 283 283 282 281 281 281 280 279 279 278 277 277 276 275 274 274 274 273 272
288 287 287 287 287 286 285 284 283 283 283 283 282 282 282 282 282 282 282 282 283 282 282 282 283 281 280 280 280 278 277 277 276 275 274 274 274 273 273 272 271 269
287 287 287 286 286 285 284 283 283 283 282 282 282 282 282 282 282 282 282 282 282 282 281 281 282 281 279 279 278 277 276 275 274 274 273 273 273 272 271 270 270 269
287 286 286 286 285 285 284 283 283 282 282 281 281 281 281 281 281 282 282 282 281 281 280 280 280 280 279 278 277 276 275 274 273 272 272 272 272 272 271 270 269 269
286 286 285 285 284 283 283 282 282 282 281 281 281 281 281 281 281 281 281 281 281 280 280 279 278 279 278 277 276 275 274 273 272 272 272 272 271 271 270 269 269 269
Wind_Speed
1 1 1 2 2 3 4 5 6 7 8 8 9 10 10 11 11 11 12 12 13 13 14 15 15 16 16 17 18 18 19 21 21 21 21 21 21 21 21 21 21 21
1 1 0 1 2 3 3 4 6 7 8 9 9 10 10 11 11 12 12 12 13 14 14 15 16 17 17 18 19 20 20 22 23 23 24 24 24 24 24 24 24 24
3 2 2 1 0 1 2 3 4 5 5 6 7 8 9 10 11 12 13 13 14 14 14 15 16 17 17 18 19 20 21 22 23 24 25 25 26 27 27 27 27 27
3 3 2 2 1 1 1 1 1 2 3 4 5 6 7 8 9 10 12 13 14 15 16 17 18 18 19 20 20 21 22 23 24 25 26 26 27 28 28 29 29 29
2 2 1 1 1 2 2 3 3 4 5 6 6 7 8 8 9 9 10 12 13 15 16 18 20 21 23 24 25 26 26 27 27 28 29 30 30 31 31 32 32 32
3 3 3 4 5 6 6 7 8 9 10 10 11 10 11 11 11 11 12 12 14 15 16 18 19 21 24 26 28 29 31 32 33 33 34 35 34 35 35 35 36 36
3 4 5 6 7 8 10 10 11 12 12 13 13 13 13 13 14 14 15 16 17 18 19 20 21 23 25 26 28 30 31 33 35 37 38 40 40 41 41 40 40 40
5 7 8 9 10 11 12 13 14 14 14 15 15 15 16 16 17 18 19 20 21 22 23 24 25 26 27 29 30 31 32 33 35 37 39 41 43 45 46 45 45 45
9 10 11 12 13 14 15 15 16 16 16 16 16 16 17 18 19 20 21 22 23 25 26 27 28 30 31 32 34 35 36 36 37 38 39 41 43 44 46 46 47 48
11 12 13 14 15 16 17 18 19 19 19 20 20 20 21 21 22 23 24 26 27 28 29 31 32 34 35 36 37 38 39 39 40 41 41 42 43 43 43 43 44 46
12 14 15 16 17 18 20 20 21 22 23 23 24 24 25 25 25 26 27 28 30 31 32 34 35 37 38 39 40 40 41 42 43 44 44 45 44 43 42 42 42 43
14 16 17 18 19 20 21 22 23 24 24 25 25 26 26 27 27 28 29 30 31 33 34 35 37 38 40 41 42 43 44 45 46 47 48 48 48 47 46 45 44 44
16 17 18 19 21 22 23 24 24 25 26 26 26 27 27 28 29 30 31 32 33 34 36 37 38 39 40 41 42 43 44 46 47 49 50 50 51 51 51 50 50 49
18 19 20 22 23 25 26 27 27 28 28 28 28 28 29 30 31 32 32 33 35 36 37 38 39 40 41 42 43 43 44 46 47 49 50 51 52 53 54 55 56 55
20 21 22 24 27 28 29 30 31 31 31 31 31 31 31 32 33 34 35 35 36 37 38 39 40 41 42 43 44 44 45 46 48 49 50 52 53 54 56 57 58 59
22 23 24 26 29 31 33 33 33 33 33 33 33 33 33 34 35 36 37 38 38 39 40 40 41 42 42 43 44 45 47 48 49 50 51 53 55 56 57 58 59 60
23 24 26 28 31 33 35 35 35 35 35 34 34 34 35 36 37 38 39 40 40 40 41 41 42 42 43 44 45 46 48 49 51 52 53 55 56 58 59 60 60 61
25 26 27 30 33 35 36 36 36 36 36 35 35 35 37 38 38 39 40 41 41 42 42 42 43 44 45 46 47 48 48 49 51 53 55 56 57 58 59 60 60 60
26 27 29 32 34 36 36 36 36 36 36 36 36 37 39 39 40 40 41 41 42 42 43 44 44 45 46 48 49 49 48 48 50 52 54 55 56 56 57 58 57 57
28 28 30 34 35 36 36 35 36 36 36 36 38 39 40 40 41 41 42 42 43 43 44 45 45 46 48 48 48 48 48 47 49 51 52 53 54 54 54 54 53 52
29 29 32 35 35 35 36 36 36 36 36 37 39 40 41 41 41 42 42 42 43 44 44 45 46 47 48 48 48 48 47 47 49 50 51 52 52 51 50 50 49 48
29 31 33 34 35 35 36 36 36 37 37 39 40 41 41 41 41 42 42 43 43 44 45 46 47 48 47 47 47 47 46 47 48 49 50 50 50 49 48 47 45 42
29 31 33 34 35 36 36 37 37 37 39 40 41 42 41 41 42 42 42 43 43 44 46 47 48 47 46 46 46 45 44 45 46 46 47 47 47 46 45 43 41 38
29 31 32 33 35 36 37 37 37 38 40 40 41 42 41 41 42 42 42 42 43 44 46 47 49 47 45 45 45 43 41 42 42 43 44 45 45 44 42 40 40 38
30 31 32 33 35 37 37 37 38 39 40 40 40 41 41 41 41 42 42 43 43 44 45 46 47 46 44 43 43 40 39 38 39 40 42 43 43 42 40 39 39 39
30 31 32 34 35 36 36 37 38 39 39 39 39 39 39 40 41 41 43 44 43 44 45 44 44 45 43 41 40 38 36 35 36 38 40 41 40 39 40 41 40 40
Wind_Direction
283 331 355 4 15 27 32 27 22 18 16 17 16 17 18 18 19 15 11 8 4 1 358 355 353 351 350 350 349 348 348 347 347 346 346 345 343 340 339 337 334 330
215 224 295 355 14 23 22 17 12 6 3 4 5 6 7 6 7 5 2 1 359 357 356 354 352 351 349 348 347 346 345 344 342 341 341 341 339 337 335 332 330 329
185 180 180 191 177 11 11 11 1 351 349 346 344 345 348 351 352 352 351 351 352 352 352 352 351 350 348 347 346 344 343 341 339 337 336 337 335 332 331 329 326 325
179 175 170 163 135 91 49 27 338 323 319 316 321 329 335 338 338 338 338 338 339 340 341 343 343 342 340 339 339 337 336 335 333 330 329 329 328 325 324 322 320 318
204 223 253 295 324 340 341 334 326 326 327 328 333 335 336 335 332 331 331 329 329 329 330 332 332 333 333 332 332 331 330 329 327 325 324 323 322 320 319 317 315 313
271 291 310 319 326 331 330 329 329 330 332 332 334 335 334 333 331 329 327 326 326 326 325 325 326 326 326 326 326 326 326 325 324 323 322 321 320 319 317 315 312 310
302 321 330 332 333 331 329 328 328 327 327 327 328 328 327 326 325 325 325 324 324 324 324 324 323 323 322 321 321 320 321 321 321 321 320 319 319 317 316 314 311 309
318 324 325 325 325 325 324 324 323 322 322 321 321 321 320 320 319 319 320 321 322 322 322 322 322 321 320 319 318 317 317 317 316 316 316 316 316 315 314 313 310 308
309 311 314 315 317 319 319 319 319 319 318 317 317 317 315 315 315 316 317 317 318 319 319 320 320 320 319 318 318 317 315 315 314 313 313 312 312 311 310 309 307 306
304 307 310 313 315 317 317 318 317 317 316 316 315 314 314 314 314 315 316 316 317 317 318 319 319 318 318 318 317 316 315 315 314 313 312 311 309 308 306 304 302 302
304 306 309 312 313 315 315 314 313 312 312 311 311 311 311 312 313 313 314 315 316 316 317 317 318 317 317 317 316 316 315 314 314 313 312 311 308 306 304 301 299 298
304 307 309 311 313 314 313 312 310 309 308 307 307 307 308 309 310 311 312 312 313 315 315 316 316 316 316 315 315 314 314 314 313 313 312 310 309 307 305 303 301 298
303 306 309 312 315 316 315 313 311 309 307 306 305 305 307 308 309 309 310 311 312 313 314 314 314 314 314 313 313 313 313 312 312 311 310 309 308 307 306 305 303 301
302 306 311 316 319 319 317 315 313 311 308 306 306 306 308 309 309 309 309 310 311 311 312 312 312 312 312 311 311 310 310 309 309 308 307 306 306 305 305 305 304 302
301 307 313 317 319 319 318 315 313 311 309 308 306 307 308 309 309 309 308 308 309 310 310 310 310 310 310 310 309 309 308 307 305 305 304 303 303 302 302 302 301 300
299 305 310 314 316 317 316 313 311 309 307 306 305 305 307 308 308 307 308 308 308 309 309 309 309 309 309 308 308 307 306 305 304 304 303 303 302 302 301 300 299 298
296 301 307 311 313 314 312 310 308 306 305 304 303 304 305 306 306 306 306 307 307 308 308 308 308 307 307 307 307 307 306 306 306 305 304 304 303 302 301 299 298 296
292 296 302 308 310 309 308 306 305 304 303 302 302 303 303 304 304 304 305 306 306 307 307 307 307 307 307 307 307 307 308 307 307 306 305 305 304 303 301 300 299 297
285 291 299 306 307 306 304 303 302 301 301 301 301 302 303 303 303 303 304 305 306 306 307 307 307 308 308 308 308 308 308 308 307 306 306 305 304 302 301 299 299 298
282 290 301 305 304 303 301 300 300 299 299 299 300 301 302 302 303 303 304 305 306 307 307 307 307 307 308 308 308 308 309 309 308 307 306 305 303 301 300 299 299 298
282 293 302 304 302 301 300 299 298 298 298 298 300 302 302 303 303 304 305 306 306 307 307 307 307 307 307 308 308 309 311 310 309 308 306 304 302 301 300 299 299 299
285 296 301 302 301 300 299 298 297 297 298 300 302 303 303 304 304 305 305 306 306 307 307 307 306 307 308 310 311 312 313 311 310 308 306 304 302 301 300 299 300 302
289 297 300 300 300 299 298 297 297 298 301 303 303 304 304 305 305 305 305 306 307 308 307 306 307 309 311 312 313 314 314 312 310 307 305 303 301 300 300 300 301 301
294 297 298 299 298 298 297 297 298 300 303 304 304 304 305 305 306 306 306 307 308 308 307 307 308 311 313 314 315 315 314 312 310 306 303 302 301 300 301 301 300 301
295 295 296 297 297 296 297 298 300 302 304 304 305 305 306 306 307 307 307 308 308 308 308 309 310 312 314 315 315 316 315 312 309 305 302 301 301 301 302 302 303 306
294 294 295 295 296 296 297 298 301 303 304 304 305 306 307 307 308 308 308 308 308 308 309 310 312 313 315 316 316 316 314 310 307 303 302 302 303 304 305 306 307 308